Location: New Canada
(47.1017°N, 68.5042°W)
Time: 08:22:12
(UTC+00:00)

BlueWalker 3 - Pass Details

Date: 03 December 2022
Orbit: 499 x 517 km, 53.2° (Epoch: 27 January)

Event Time Altitude Azimuth Distance (km) Brightness Sun altitude
Rises 23:27:55 0° 297° (WNW) 2,632 6.5 -26.8°
Reaches altitude 10° 23:30:11 10° 303° (WNW) 1,739 5.3 -27.1°
Enters shadow 23:32:02 25° 316° (NW) 1,071 3.9 -27.5°
